| time (UTC) | temp F | wind direction | speed MPH | gust MPH | rain 1hr in | rain 24hr in | rain mn in | humidity % | barometer mb |
| 20260905163108 | 88 | 22 | 1.0 | 7.0 | 0.00 | 0.02 | 0.00 | 74 | 1015.3 |
| 20260905162536 | 88 | 321 | 2.0 | 7.0 | 0.00 | 0.02 | 0.00 | 73 | 1015.3 |
| 20260905162036 | 87 | 150 | 3.0 | 6.0 | 0.00 | 0.02 | 0.00 | 74 | 1015.4 |
| 20260905161558 | 87 | 277 | 2.0 | 5.0 | 0.00 | 0.02 | 0.00 | 76 | 1015.3 |
| 20260905161036 | 86 | 0 | 1.0 | 6.0 | 0.00 | 0.02 | 0.00 | 79 | 1015.4 |
| 20260905160536 | 86 | 87 | 2.0 | 6.0 | 0.00 | 0.02 | 0.00 | 81 | 1015.4 |
| 20260905160055 | 85 | 150 | 3.0 | 5.0 | 0.00 | 0.02 | 0.00 | 81 | 1015.4 |
| 20260905155536 | 85 | 0 | 0.0 | 6.0 | 0.00 | 0.02 | 0.00 | 83 | 1015.4 |
| 20260905155037 | 84 | 240 | 2.0 | 6.0 | 0.00 | 0.02 | 0.00 | 84 | 1015.4 |
| 20260905154612 | 84 | 240 | 2.0 | 6.0 | 0.00 | 0.02 | 0.00 | 84 | 1015.5 |
| 20260905154037 | 83 | 0 | 2.0 | 6.0 | 0.00 | 0.02 | 0.00 | 86 | 1015.5 |
| 20260905153538 | 82 | 277 | 1.0 | 4.0 | 0.00 | 0.02 | 0.00 | 89 | 1015.6 |
| 20260905153107 | 82 | 0 | 1.0 | 4.0 | 0.00 | 0.02 | 0.00 | 90 | 1015.6 |
| 20260905152537 | 81 | 277 | 1.0 | 4.0 | 0.00 | 0.02 | 0.00 | 91 | 1015.5 |
| 20260905152036 | 80 | 153 | 0.0 | 2.0 | 0.00 | 0.02 | 0.00 | 92 | 1015.5 |
| 20260905151601 | 80 | 153 | 0.0 | 2.0 | 0.00 | 0.02 | 0.00 | 92 | 1015.4 |
| 20260905151035 | 80 | 153 | 0.0 | 2.0 | 0.00 | 0.02 | 0.00 | 93 | 1015.4 |
| 20260905150538 | 79 | 0 | 0.0 | 0.0 | 0.00 | 0.02 | 0.00 | 93 | 1015.4 |
| 20260905150053 | 79 | 0 | 0.0 | 0.0 | 0.00 | 0.02 | 0.00 | 93 | 1015.5 |
| 20260905145535 | 78 | 0 | 0.0 | 0.0 | 0.00 | 0.02 | 0.00 | 94 | 1015.5 |
| 20260905145038 | 78 | 0 | 0.0 | 0.0 | 0.00 | 0.02 | 0.00 | 94 | 1015.4 |
| 20260905144559 | 78 | 0 | 0.0 | 0.0 | 0.00 | 0.02 | 0.00 | 94 | 1015.4 |
| 20260905144037 | 78 | 0 | 0.0 | 0.0 | 0.00 | 0.02 | 0.00 | 94 | 1015.4 |
| 20260905143536 | 78 | 0 | 0.0 | 0.0 | 0.00 | 0.02 | 0.00 | 94 | 1015.4 |
| 20260905143100 | 77 | 0 | 0.0 | 0.0 | 0.00 | 0.02 | 0.00 | 94 | 1015.4 |
| 20260905142537 | 77 | 0 | 0.0 | 0.0 | 0.00 | 0.02 | 0.00 | 94 | 1015.4 |
| 20260905142037 | 77 | 0 | 0.0 | 0.0 | 0.00 | 0.02 | 0.00 | 95 | 1015.5 |
| 20260905141557 | 77 | 0 | 0.0 | 0.0 | 0.00 | 0.02 | 0.00 | 94 | 1015.4 |
| 20260905141037 | 77 | 0 | 0.0 | 0.0 | 0.00 | 0.02 | 0.00 | 95 | 1015.4 |
| 20260905140537 | 77 | 0 | 0.0 | 2.0 | 0.00 | 0.02 | 0.00 | 95 | 1015.4 |
| 20260905135536 | 76 | 0 | 0.0 | 2.0 | 0.00 | 0.02 | 0.00 | 95 | 1015.3 |
| 20260905135038 | 76 | 153 | 0.0 | 2.0 | 0.00 | 0.02 | 0.00 | 95 | 1015.3 |
| 20260905134559 | 76 | 0 | 0.0 | 2.0 | 0.00 | 0.02 | 0.00 | 95 | 1015.4 |
| 20260905134036 | 76 | 0 | 0.0 | 0.0 | 0.00 | 0.02 | 0.00 | 95 | 1015.3 |
| 20260905133536 | 76 | 0 | 0.0 | 0.0 | 0.00 | 0.02 | 0.00 | 95 | 1015.3 |
| 20260905133057 | 75 | 0 | 0.0 | 0.0 | 0.00 | 0.02 | 0.00 | 95 | 1015.2 |
| 20260905132536 | 75 | 0 | 0.0 | 0.0 | 0.00 | 0.02 | 0.00 | 95 | 1015.3 |
| 20260905132036 | 75 | 0 | 0.0 | 0.0 | 0.00 | 0.02 | 0.00 | 95 | 1015.3 |
| 20260905131605 | 75 | 0 | 0.0 | 0.0 | 0.00 | 0.02 | 0.00 | 95 | 1015.3 |
| 20260905131036 | 75 | 0 | 0.0 | 0.0 | 0.00 | 0.02 | 0.00 | 95 | 1015.2 |
| 20260905130536 | 75 | 0 | 0.0 | 0.0 | 0.00 | 0.02 | 0.00 | 95 | 1015.1 |
| 20260905130052 | 74 | 0 | 0.0 | 0.0 | 0.00 | 0.02 | 0.00 | 95 | 1015.1 |
| 20260905125536 | 74 | 0 | 0.0 | 0.0 | 0.00 | 0.02 | 0.00 | 94 | 1015.0 |
| 20260905125036 | 74 | 0 | 0.0 | 0.0 | 0.00 | 0.02 | 0.00 | 94 | 1014.9 |
| 20260905124604 | 73 | 0 | 0.0 | 0.0 | 0.00 | 0.02 | 0.00 | 94 | 1014.9 |
| 20260905124039 | 73 | 0 | 0.0 | 0.0 | 0.00 | 0.02 | 0.00 | 94 | 1014.8 |
| 20260905123536 | 73 | 0 | 0.0 | 0.0 | 0.00 | 0.02 | 0.00 | 94 | 1014.7 |
| 20260905123102 | 73 | 0 | 0.0 | 0.0 | 0.00 | 0.02 | 0.00 | 94 | 1014.7 |
| 20260905122536 | 73 | 0 | 0.0 | 0.0 | 0.00 | 0.02 | 0.00 | 94 | 1014.6 |
| 20260905122035 | 73 | 0 | 0.0 | 0.0 | 0.00 | 0.02 | 0.00 | 94 | 1014.6 |
| 20260905121558 | 73 | 0 | 0.0 | 0.0 | 0.00 | 0.02 | 0.00 | 94 | 1014.5 |
| 20260905121037 | 73 | 0 | 0.0 | 0.0 | 0.00 | 0.02 | 0.00 | 93 | 1014.6 |
| 20260905120537 | 74 | 0 | 0.0 | 0.0 | 0.00 | 0.02 | 0.00 | 94 | 1014.6 |
| 20260905115539 | 73 | 0 | 0.0 | 0.0 | 0.00 | 0.03 | 0.00 | 94 | 1014.5 |
| 20260905115037 | 73 | 0 | 0.0 | 0.0 | 0.00 | 0.03 | 0.00 | 93 | 1014.4 |
| 20260905114600 | 73 | 0 | 0.0 | 0.0 | 0.00 | 0.03 | 0.00 | 93 | 1014.4 |
| 20260905114037 | 73 | 0 | 0.0 | 0.0 | 0.00 | 0.03 | 0.00 | 93 | 1014.3 |
| 20260905113536 | 73 | 0 | 0.0 | 0.0 | 0.00 | 0.03 | 0.00 | 93 | 1014.3 |
| 20260905113057 | 73 | 0 | 0.0 | 0.0 | 0.00 | 0.03 | 0.00 | 93 | 1014.1 |
| 20260905112536 | 74 | 0 | 0.0 | 0.0 | 0.00 | 0.03 | 0.00 | 93 | 1014.2 |
| 20260905112036 | 74 | 0 | 0.0 | 0.0 | 0.00 | 0.03 | 0.00 | 93 | 1014.0 |
| 20260905111641 | 74 | 0 | 0.0 | 0.0 | 0.00 | 0.03 | 0.00 | 93 | 1014.0 |
| 20260905111036 | 74 | 0 | 0.0 | 0.0 | 0.00 | 0.03 | 0.00 | 93 | 1013.9 |
| 20260905110536 | 74 | 0 | 0.0 | 0.0 | 0.00 | 0.03 | 0.00 | 93 | 1013.9 |
| 20260905110051 | 74 | 0 | 0.0 | 0.0 | 0.00 | 0.03 | 0.00 | 93 | 1013.8 |
| 20260905105536 | 75 | 0 | 0.0 | 0.0 | 0.00 | 0.03 | 0.00 | 93 | 1013.8 |
| 20260905105038 | 75 | 0 | 0.0 | 0.0 | 0.00 | 0.03 | 0.00 | 93 | 1013.8 |
| 20260905104606 | 75 | 0 | 0.0 | 0.0 | 0.00 | 0.03 | 0.00 | 93 | 1013.8 |
| 20260905104039 | 75 | 0 | 0.0 | 0.0 | 0.00 | 0.03 | 0.00 | 93 | 1013.7 |
| 20260905103537 | 75 | 0 | 0.0 | 0.0 | 0.00 | 0.03 | 0.00 | 93 | 1013.9 |
| 20260905103058 | 75 | 0 | 0.0 | 0.0 | 0.00 | 0.03 | 0.00 | 93 | 1013.9 |
| 20260905102536 | 74 | 0 | 0.0 | 0.0 | 0.00 | 0.03 | 0.00 | 93 | 1013.8 |
| 20260905102036 | 74 | 0 | 0.0 | 0.0 | 0.00 | 0.03 | 0.00 | 93 | 1013.8 |
| 20260905101602 | 75 | 0 | 0.0 | 0.0 | 0.00 | 0.03 | 0.00 | 93 | 1013.7 |
| 20260905101038 | 75 | 0 | 0.0 | 0.0 | 0.00 | 0.03 | 0.00 | 93 | 1013.7 |
| 20260905100536 | 75 | 0 | 0.0 | 0.0 | 0.00 | 0.03 | 0.00 | 93 | 1013.7 |
| 20260905100110 | 75 | 0 | 0.0 | 0.0 | 0.00 | 0.03 | 0.00 | 93 | 1013.7 |
| 20260905095537 | 75 | 0 | 0.0 | 0.0 | 0.00 | 0.03 | 0.00 | 93 | 1013.7 |
| 20260905095036 | 75 | 0 | 0.0 | 0.0 | 0.00 | 0.03 | 0.00 | 93 | 1013.7 |
| 20260905094603 | 75 | 0 | 0.0 | 0.0 | 0.00 | 0.03 | 0.00 | 93 | 1013.7 |
| 20260905094037 | 75 | 0 | 0.0 | 0.0 | 0.00 | 0.03 | 0.00 | 92 | 1013.8 |
| 20260905093536 | 75 | 0 | 0.0 | 0.0 | 0.00 | 0.03 | 0.00 | 92 | 1013.8 |
| 20260905093102 | 75 | 0 | 0.0 | 0.0 | 0.00 | 0.03 | 0.00 | 92 | 1013.8 |
| 20260905092536 | 75 | 0 | 0.0 | 0.0 | 0.00 | 0.03 | 0.00 | 92 | 1013.8 |
| 20260905092036 | 75 | 0 | 0.0 | 0.0 | 0.00 | 0.03 | 0.00 | 92 | 1013.9 |
| 20260905091553 | 75 | 0 | 0.0 | 0.0 | 0.00 | 0.03 | 0.00 | 92 | 1013.8 |
| 20260905091035 | 75 | 0 | 0.0 | 0.0 | 0.00 | 0.03 | 0.00 | 92 | 1013.8 |
| 20260905090536 | 75 | 0 | 0.0 | 0.0 | 0.00 | 0.03 | 0.00 | 92 | 1013.7 |
| 20260905090058 | 75 | 0 | 0.0 | 0.0 | 0.00 | 0.03 | 0.00 | 92 | 1013.6 |
| 20260905085538 | 75 | 0 | 0.0 | 0.0 | 0.00 | 0.03 | 0.00 | 92 | 1013.6 |
| 20260905085037 | 75 | 0 | 0.0 | 0.0 | 0.00 | 0.03 | 0.00 | 92 | 1013.5 |
| 20260905084606 | 75 | 0 | 0.0 | 0.0 | 0.00 | 0.03 | 0.00 | 92 | 1013.6 |
| 20260905084037 | 76 | 0 | 0.0 | 0.0 | 0.00 | 0.03 | 0.00 | 92 | 1013.5 |
| 20260905083537 | 76 | 0 | 0.0 | 0.0 | 0.00 | 0.03 | 0.00 | 92 | 1013.5 |
| 20260905083057 | 76 | 0 | 0.0 | 0.0 | 0.00 | 0.03 | 0.00 | 92 | 1013.6 |
| 20260905082536 | 76 | 0 | 0.0 | 0.0 | 0.00 | 0.03 | 0.00 | 91 | 1013.6 |
| 20260905082036 | 76 | 0 | 0.0 | 0.0 | 0.00 | 0.03 | 0.00 | 91 | 1013.6 |
| 20260905081551 | 76 | 0 | 0.0 | 0.0 | 0.00 | 0.03 | 0.00 | 91 | 1013.6 |
| 20260905081037 | 76 | 0 | 0.0 | 0.0 | 0.00 | 0.03 | 0.00 | 91 | 1013.6 |
| 20260905080537 | 76 | 0 | 0.0 | 0.0 | 0.00 | 0.03 | 0.00 | 91 | 1013.5 |
| 20260905080058 | 76 | 0 | 0.0 | 0.0 | 0.00 | 0.03 | 0.00 | 91 | 1013.6 |
| 20260905075537 | 76 | 0 | 0.0 | 0.0 | 0.00 | 0.03 | 0.00 | 91 | 1013.6 |
| 20260905075037 | 76 | 0 | 0.0 | 0.0 | 0.00 | 0.03 | 0.00 | 91 | 1013.8 |
| 20260905074600 | 76 | 0 | 0.0 | 0.0 | 0.00 | 0.03 | 0.00 | 91 | 1013.8 |
| 20260905074035 | 76 | 0 | 0.0 | 0.0 | 0.00 | 0.03 | 0.00 | 91 | 1013.8 |
| 20260905073537 | 76 | 0 | 0.0 | 0.0 | 0.00 | 0.03 | 0.00 | 90 | 1013.8 |
| 20260905073056 | 76 | 0 | 0.0 | 0.0 | 0.00 | 0.03 | 0.00 | 90 | 1013.8 |
| 20260905072536 | 76 | 0 | 0.0 | 0.0 | 0.00 | 0.03 | 0.00 | 90 | 1013.9 |
| 20260905072036 | 76 | 0 | 0.0 | 0.0 | 0.00 | 0.03 | 0.00 | 91 | 1014.0 |
| 20260905071601 | 77 | 0 | 0.0 | 0.0 | 0.00 | 0.03 | 0.00 | 91 | 1014.0 |
| 20260905071036 | 77 | 0 | 0.0 | 0.0 | 0.00 | 0.03 | 0.00 | 91 | 1014.1 |
| 20260905070536 | 77 | 0 | 0.0 | 0.0 | 0.00 | 0.03 | 0.00 | 90 | 1014.1 |
| 20260905065537 | 77 | 0 | 0.0 | 0.0 | 0.00 | 0.03 | 0.00 | 90 | 1014.2 |
| 20260905065036 | 77 | 0 | 0.0 | 0.0 | 0.00 | 0.03 | 0.00 | 90 | 1014.2 |
| 20260905064558 | 77 | 0 | 0.0 | 0.0 | 0.00 | 0.03 | 0.00 | 90 | 1014.0 |
| 20260905064036 | 77 | 0 | 0.0 | 0.0 | 0.00 | 0.03 | 0.00 | 90 | 1014.1 |
| 20260905063536 | 77 | 0 | 0.0 | 0.0 | 0.00 | 0.03 | 0.00 | 90 | 1014.1 |
| 20260905063056 | 77 | 0 | 0.0 | 0.0 | 0.00 | 0.03 | 0.00 | 90 | 1014.2 |
| 20260905062537 | 77 | 0 | 0.0 | 0.0 | 0.00 | 0.03 | 0.00 | 90 | 1014.2 |
| 20260905062039 | 77 | 0 | 0.0 | 0.0 | 0.00 | 0.03 | 0.00 | 89 | 1014.1 |
| 20260905061603 | 77 | 0 | 0.0 | 0.0 | 0.00 | 0.03 | 0.00 | 89 | 1014.0 |
| 20260905061036 | 77 | 0 | 0.0 | 0.0 | 0.00 | 0.03 | 0.00 | 90 | 1014.0 |
| 20260905060536 | 77 | 0 | 0.0 | 0.0 | 0.00 | 0.03 | 0.00 | 89 | 1013.9 |
| 20260905060103 | 77 | 0 | 0.0 | 0.0 | 0.00 | 0.03 | 0.00 | 89 | 1014.0 |
| 20260905055537 | 77 | 0 | 0.0 | 0.0 | 0.00 | 0.03 | 0.00 | 88 | 1013.9 |
| 20260905055036 | 77 | 0 | 0.0 | 0.0 | 0.00 | 0.03 | 0.00 | 88 | 1013.9 |
| 20260905054600 | 77 | 0 | 0.0 | 0.0 | 0.00 | 0.03 | 0.00 | 88 | 1014.0 |
| 20260905054036 | 77 | 0 | 0.0 | 0.0 | 0.00 | 0.03 | 0.00 | 88 | 1013.9 |
| 20260905053536 | 77 | 0 | 0.0 | 0.0 | 0.00 | 0.03 | 0.00 | 89 | 1013.9 |
| 20260905053110 | 77 | 0 | 0.0 | 0.0 | 0.00 | 0.03 | 0.00 | 89 | 1013.9 |
| 20260905052535 | 77 | 0 | 0.0 | 0.0 | 0.00 | 0.03 | 0.00 | 89 | 1013.9 |
| 20260905052037 | 77 | 0 | 0.0 | 0.0 | 0.00 | 0.03 | 0.00 | 89 | 1014.0 |
| 20260905051601 | 77 | 0 | 0.0 | 0.0 | 0.00 | 0.03 | 0.00 | 89 | 1014.0 |
| 20260905051037 | 77 | 0 | 0.0 | 0.0 | 0.00 | 0.03 | 0.00 | 88 | 1013.9 |
| 20260905050537 | 77 | 0 | 0.0 | 0.0 | 0.00 | 0.03 | 0.00 | 88 | 1013.9 |
| 20260905050110 | 77 | 0 | 0.0 | 0.0 | 0.00 | 0.03 | 0.00 | 88 | 1014.0 |
| 20260905045537 | 77 | 0 | 0.0 | 0.0 | 0.00 | 0.03 | 0.03 | 88 | 1014.0 |
| 20260905045036 | 78 | 0 | 0.0 | 0.0 | 0.00 | 0.03 | 0.03 | 88 | 1014.1 |
| 20260905044602 | 78 | 0 | 0.0 | 0.0 | 0.00 | 0.03 | 0.03 | 88 | 1014.1 |
| 20260905044037 | 78 | 0 | 0.0 | 0.0 | 0.00 | 0.03 | 0.03 | 88 | 1014.0 |
| 20260905043537 | 78 | 0 | 0.0 | 0.0 | 0.00 | 0.03 | 0.03 | 88 | 1013.9 |
| 20260905043059 | 78 | 0 | 0.0 | 0.0 | 0.00 | 0.03 | 0.03 | 87 | 1014.0 |
| 20260905042535 | 78 | 0 | 0.0 | 0.0 | 0.00 | 0.03 | 0.03 | 88 | 1013.9 |
| 20260905042037 | 78 | 0 | 0.0 | 0.0 | 0.00 | 0.03 | 0.03 | 87 | 1014.0 |
| 20260905041605 | 78 | 0 | 0.0 | 0.0 | 0.00 | 0.03 | 0.03 | 86 | 1014.1 |
| 20260905041036 | 78 | 0 | 0.0 | 0.0 | 0.00 | 0.03 | 0.03 | 87 | 1014.2 |
| 20260905040537 | 78 | 0 | 0.0 | 0.0 | 0.00 | 0.03 | 0.03 | 87 | 1014.1 |
| 20260905040106 | 79 | 0 | 0.0 | 0.0 | 0.00 | 0.03 | 0.03 | 87 | 1014.2 |
| 20260905035536 | 79 | 0 | 0.0 | 0.0 | 0.00 | 0.03 | 0.03 | 87 | 1014.2 |
| 20260905035037 | 79 | 0 | 0.0 | 0.0 | 0.00 | 0.03 | 0.03 | 87 | 1014.2 |
| 20260905034611 | 79 | 0 | 0.0 | 0.0 | 0.00 | 0.03 | 0.03 | 86 | 1014.3 |
| 20260905034036 | 79 | 0 | 0.0 | 0.0 | 0.00 | 0.03 | 0.03 | 86 | 1014.2 |
| 20260905033536 | 79 | 0 | 0.0 | 0.0 | 0.00 | 0.03 | 0.03 | 86 | 1014.2 |
| 20260905033119 | 79 | 0 | 0.0 | 0.0 | 0.00 | 0.03 | 0.03 | 86 | 1014.2 |
| 20260905032535 | 80 | 0 | 0.0 | 0.0 | 0.00 | 0.03 | 0.03 | 86 | 1014.2 |
| 20260905032036 | 80 | 0 | 0.0 | 0.0 | 0.00 | 0.03 | 0.03 | 85 | 1014.3 |
| 20260905031602 | 80 | 0 | 0.0 | 0.0 | 0.00 | 0.03 | 0.03 | 84 | 1014.3 |
| 20260905031037 | 80 | 0 | 0.0 | 0.0 | 0.00 | 0.03 | 0.03 | 85 | 1014.3 |
| 20260905030537 | 80 | 0 | 0.0 | 0.0 | 0.00 | 0.03 | 0.03 | 85 | 1014.3 |
| 20260905030101 | 80 | 0 | 0.0 | 0.0 | 0.00 | 0.03 | 0.03 | 84 | 1014.2 |
| 20260905025535 | 81 | 0 | 0.0 | 0.0 | 0.00 | 0.03 | 0.03 | 84 | 1014.1 |
| 20260905025036 | 81 | 0 | 0.0 | 0.0 | 0.00 | 0.03 | 0.03 | 84 | 1014.1 |
| 20260905024604 | 81 | 0 | 0.0 | 0.0 | 0.00 | 0.03 | 0.03 | 84 | 1014.0 |
| 20260905024039 | 81 | 0 | 0.0 | 0.0 | 0.00 | 0.03 | 0.03 | 84 | 1014.0 |
| 20260905023536 | 81 | 0 | 0.0 | 0.0 | 0.00 | 0.03 | 0.03 | 84 | 1014.1 |
| 20260905023126 | 82 | 0 | 0.0 | 0.0 | 0.00 | 0.03 | 0.03 | 83 | 1014.1 |
| 20260905022535 | 82 | 0 | 0.0 | 0.0 | 0.00 | 0.03 | 0.03 | 82 | 1014.1 |
| 20260905022037 | 82 | 0 | 0.0 | 0.0 | 0.00 | 0.03 | 0.03 | 81 | 1014.1 |
| 20260905021600 | 82 | 0 | 0.0 | 0.0 | 0.00 | 0.03 | 0.03 | 81 | 1014.0 |
| 20260905021036 | 83 | 0 | 0.0 | 0.0 | 0.00 | 0.03 | 0.03 | 81 | 1014.0 |
| 20260905020536 | 83 | 0 | 0.0 | 0.0 | 0.00 | 0.03 | 0.03 | 81 | 1013.9 |
| 20260905020058 | 83 | 0 | 0.0 | 0.0 | 0.00 | 0.03 | 0.03 | 80 | 1013.7 |
| 20260905015536 | 84 | 0 | 0.0 | 0.0 | 0.00 | 0.03 | 0.03 | 80 | 1013.7 |
| 20260905015036 | 84 | 0 | 0.0 | 0.0 | 0.00 | 0.03 | 0.03 | 79 | 1013.6 |
| 20260905014559 | 84 | 0 | 0.0 | 0.0 | 0.00 | 0.03 | 0.03 | 77 | 1013.5 |
| 20260905014038 | 84 | 0 | 0.0 | 0.0 | 0.00 | 0.03 | 0.03 | 77 | 1013.4 |
| 20260905013536 | 84 | 0 | 0.0 | 0.0 | 0.00 | 0.03 | 0.03 | 77 | 1013.4 |
| 20260905013101 | 85 | 0 | 0.0 | 0.0 | 0.00 | 0.03 | 0.03 | 77 | 1013.4 |
| 20260905012537 | 85 | 0 | 0.0 | 2.0 | 0.00 | 0.03 | 0.03 | 76 | 1013.3 |
| 20260905012037 | 85 | 0 | 0.0 | 2.0 | 0.00 | 0.03 | 0.03 | 76 | 1013.3 |
| 20260905011603 | 85 | 153 | 0.0 | 2.0 | 0.00 | 0.03 | 0.03 | 76 | 1013.2 |
| 20260905011036 | 85 | 0 | 0.0 | 5.0 | 0.00 | 0.03 | 0.03 | 75 | 1013.1 |
| 20260905010536 | 86 | 153 | 0.0 | 5.0 | 0.00 | 0.03 | 0.03 | 75 | 1013.0 |
| 20260905010109 | 86 | 153 | 0.0 | 2.0 | 0.00 | 0.03 | 0.03 | 74 | 1013.1 |
| 20260905005536 | 87 | 0 | 0.0 | 1.0 | 0.00 | 0.03 | 0.03 | 74 | 1013.0 |
| 20260905005036 | 87 | 0 | 0.0 | 1.0 | 0.00 | 0.03 | 0.03 | 73 | 1012.9 |
| 20260905004623 | 88 | 0 | 0.0 | 1.0 | 0.00 | 0.03 | 0.03 | 73 | 1012.8 |
| 20260905004037 | 88 | 0 | 0.0 | 1.0 | 0.00 | 0.03 | 0.03 | 71 | 1012.8 |
| 20260905003536 | 88 | 0 | 0.0 | 5.0 | 0.00 | 0.03 | 0.03 | 70 | 1012.8 |
| 20260905003056 | 89 | 0 | 0.0 | 5.0 | 0.00 | 0.03 | 0.03 | 70 | 1012.8 |
| 20260905002535 | 89 | 153 | 0.0 | 5.0 | 0.00 | 0.03 | 0.03 | 69 | 1012.8 |
| 20260905002036 | 89 | 153 | 1.0 | 5.0 | 0.00 | 0.03 | 0.03 | 69 | 1012.7 |
| 20260905001604 | 89 | 160 | 2.0 | 5.0 | 0.00 | 0.03 | 0.03 | 68 | 1012.8 |
| 20260905001035 | 89 | 167 | 2.0 | 5.0 | 0.00 | 0.03 | 0.03 | 69 | 1012.8 |
| 20260905000537 | 89 | 140 | 0.0 | 7.0 | 0.00 | 0.03 | 0.03 | 70 | 1012.8 |
| 20260905000130 | 89 | 188 | 2.0 | 8.0 | 0.00 | 0.03 | 0.03 | 69 | 1012.8 |
| 20260904235537 | 89 | 155 | 4.0 | 8.0 | 0.00 | 0.03 | 0.03 | 69 | 1012.8 |
| 20260904235036 | 90 | 151 | 3.0 | 8.0 | 0.00 | 0.03 | 0.03 | 68 | 1012.8 |
| 20260904234602 | 90 | 182 | 3.0 | 7.0 | 0.00 | 0.03 | 0.03 | 69 | 1012.8 |
| 20260904234038 | 90 | 156 | 1.0 | 7.0 | 0.00 | 0.03 | 0.03 | 70 | 1012.9 |
| 20260904233536 | 90 | 170 | 3.0 | 8.0 | 0.00 | 0.03 | 0.03 | 69 | 1012.9 |
| 20260904233103 | 89 | 165 | 3.0 | 8.0 | 0.00 | 0.03 | 0.03 | 69 | 1012.9 |
| 20260904232536 | 89 | 153 | 4.0 | 10.0 | 0.00 | 0.03 | 0.03 | 69 | 1012.9 |
| 20260904232038 | 89 | 117 | 5.0 | 10.0 | 0.00 | 0.03 | 0.03 | 69 | 1012.9 |
| 20260904231603 | 90 | 139 | 4.0 | 8.0 | 0.00 | 0.03 | 0.03 | 69 | 1012.9 |
| 20260904231037 | 90 | 178 | 2.0 | 7.0 | 0.00 | 0.03 | 0.03 | 70 | 1012.8 |
| 20260904230539 | 89 | 161 | 2.0 | 9.0 | 0.00 | 0.03 | 0.03 | 70 | 1012.7 |
| 20260904230114 | 89 | 178 | 2.0 | 9.0 | 0.00 | 0.03 | 0.03 | 71 | 1012.7 |
| 20260904225537 | 88 | 170 | 2.0 | 8.0 | 0.00 | 0.03 | 0.03 | 73 | 1012.8 |
| 20260904225036 | 88 | 188 | 2.0 | 9.0 | 0.00 | 0.03 | 0.03 | 73 | 1012.7 |
| 20260904224600 | 88 | 174 | 2.0 | 9.0 | 0.00 | 0.03 | 0.03 | 72 | 1012.8 |
| 20260904224038 | 89 | 159 | 2.0 | 7.0 | 0.00 | 0.03 | 0.03 | 72 | 1012.8 |
| 20260904223536 | 89 | 167 | 2.0 | 7.0 | 0.00 | 0.03 | 0.03 | 71 | 1012.8 |
| 20260904223058 | 89 | 132 | 3.0 | 7.0 | 0.00 | 0.03 | 0.03 | 70 | 1012.8 |
| 20260904222538 | 89 | 0 | 3.0 | 7.0 | 0.00 | 0.03 | 0.03 | 69 | 1012.8 |
| 20260904222038 | 90 | 154 | 4.0 | 8.0 | 0.00 | 0.03 | 0.03 | 68 | 1012.8 |
| 20260904221603 | 91 | 167 | 3.0 | 8.0 | 0.00 | 0.03 | 0.03 | 66 | 1012.8 |
| 20260904221037 | 92 | 165 | 3.0 | 7.0 | 0.00 | 0.03 | 0.03 | 65 | 1012.8 |
| 20260904220537 | 92 | 140 | 3.0 | 7.0 | 0.00 | 0.03 | 0.03 | 63 | 1012.8 |
| 20260904220105 | 92 | 103 | 4.0 | 7.0 | 0.00 | 0.03 | 0.03 | 62 | 1012.8 |
| 20260904215536 | 92 | 134 | 2.0 | 7.0 | 0.00 | 0.03 | 0.03 | 63 | 1012.8 |
| 20260904215037 | 92 | 153 | 2.0 | 7.0 | 0.00 | 0.03 | 0.03 | 63 | 1012.9 |
| 20260904214600 | 92 | 101 | 2.0 | 7.0 | 0.00 | 0.03 | 0.03 | 63 | 1012.8 |
| 20260904214036 | 92 | 153 | 2.0 | 6.0 | 0.00 | 0.03 | 0.03 | 64 | 1013.0 |
| 20260904213536 | 91 | 269 | 2.0 | 5.0 | 0.00 | 0.03 | 0.03 | 65 | 1013.0 |
| 20260904213056 | 91 | 0 | 2.0 | 4.0 | 0.00 | 0.03 | 0.03 | 65 | 1012.9 |
| 20260904212540 | 91 | 194 | 2.0 | 4.0 | 0.00 | 0.03 | 0.03 | 66 | 1013.1 |
| 20260904212038 | 90 | 145 | 1.0 | 6.0 | 0.00 | 0.03 | 0.03 | 68 | 1013.2 |
| 20260904211601 | 89 | 140 | 2.0 | 6.0 | 0.00 | 0.03 | 0.03 | 68 | 1013.3 |
| 20260904211036 | 89 | 123 | 1.0 | 5.0 | 0.00 | 0.03 | 0.03 | 68 | 1013.3 |
| 20260904210537 | 89 | 0 | 0.0 | 3.0 | 0.00 | 0.03 | 0.03 | 69 | 1013.4 |
| 20260904210058 | 89 | 179 | 1.0 | 3.0 | 0.00 | 0.03 | 0.03 | 68 | 1013.5 |
| 20260904205537 | 89 | 179 | 1.0 | 4.0 | 0.00 | 0.04 | 0.03 | 69 | 1013.5 |
| 20260904205036 | 89 | 179 | 0.0 | 4.0 | 0.00 | 0.04 | 0.03 | 69 | 1013.6 |
| 20260904204606 | 89 | 179 | 1.0 | 5.0 | 0.00 | 0.04 | 0.03 | 68 | 1013.6 |
| 20260904204037 | 89 | 133 | 1.0 | 5.0 | 0.00 | 0.04 | 0.03 | 69 | 1013.6 |
| 20260904203536 | 89 | 221 | 1.0 | 7.0 | 0.00 | 0.04 | 0.03 | 68 | 1013.6 |
| 20260904203056 | 89 | 175 | 3.0 | 7.0 | 0.00 | 0.04 | 0.03 | 69 | 1013.7 |
| 20260904202535 | 89 | 148 | 2.0 | 7.0 | 0.00 | 0.04 | 0.03 | 70 | 1013.8 |
| 20260904202036 | 87 | 157 | 3.0 | 7.0 | 0.00 | 0.04 | 0.03 | 72 | 1013.9 |
| 20260904201627 | 86 | 143 | 1.0 | 5.0 | 0.00 | 0.04 | 0.03 | 73 | 1013.9 |
| 20260904201037 | 86 | 133 | 1.0 | 3.0 | 0.00 | 0.04 | 0.03 | 73 | 1014.0 |
| 20260904200536 | 86 | 128 | 1.0 | 7.0 | 0.00 | 0.04 | 0.03 | 74 | 1014.1 |
| 20260904200105 | 86 | 128 | 2.0 | 7.0 | 0.00 | 0.04 | 0.03 | 75 | 1014.0 |
| 20260904195537 | 86 | 128 | 4.0 | 7.0 | 0.00 | 0.05 | 0.03 | 75 | 1014.1 |
| 20260904195036 | 86 | 176 | 1.0 | 4.0 | 0.00 | 0.05 | 0.03 | 75 | 1014.2 |
| 20260904194600 | 86 | 176 | 1.0 | 7.0 | 0.00 | 0.05 | 0.03 | 75 | 1014.3 |
| 20260904194040 | 85 | 127 | 3.0 | 8.0 | 0.00 | 0.05 | 0.03 | 75 | 1014.5 |
| 20260904193537 | 86 | 159 | 3.0 | 8.0 | 0.00 | 0.05 | 0.03 | 76 | 1014.6 |
| 20260904193104 | 86 | 129 | 4.0 | 6.0 | 0.00 | 0.05 | 0.03 | 75 | 1014.6 |
| 20260904192537 | 86 | 164 | 2.0 | 7.0 | 0.00 | 0.05 | 0.03 | 75 | 1014.5 |
| 20260904192036 | 86 | 0 | 2.0 | 7.0 | 0.00 | 0.05 | 0.03 | 74 | 1014.5 |
| 20260904191602 | 86 | 163 | 2.0 | 7.0 | 0.00 | 0.05 | 0.03 | 74 | 1014.7 |
| 20260904191041 | 86 | 152 | 3.0 | 7.0 | 0.00 | 0.05 | 0.03 | 74 | 1014.7 |
| 20260904190539 | 87 | 0 | 1.0 | 5.0 | 0.00 | 0.05 | 0.03 | 74 | 1014.7 |
| 20260904185537 | 87 | 162 | 2.0 | 8.0 | 0.00 | 0.10 | 0.03 | 72 | 1014.9 |
| 20260904185036 | 88 | 180 | 3.0 | 8.0 | 0.00 | 0.10 | 0.03 | 71 | 1014.9 |
| 20260904184601 | 88 | 182 | 2.0 | 8.0 | 0.00 | 0.10 | 0.03 | 69 | 1015.0 |
| 20260904184039 | 88 | 167 | 4.0 | 9.0 | 0.00 | 0.10 | 0.03 | 69 | 1014.9 |
| 20260904183537 | 88 | 156 | 5.0 | 9.0 | 0.00 | 0.10 | 0.03 | 70 | 1015.1 |
| 20260904183117 | 87 | 141 | 4.0 | 9.0 | 0.00 | 0.10 | 0.03 | 74 | 1015.2 |
| 20260904182539 | 87 | 190 | 5.0 | 9.0 | 0.00 | 0.10 | 0.03 | 74 | 1015.4 |
| 20260904182037 | 85 | 175 | 4.0 | 9.0 | 0.00 | 0.10 | 0.03 | 76 | 1015.3 |
| 20260904181603 | 84 | 156 | 2.0 | 9.0 | 0.00 | 0.10 | 0.03 | 77 | 1015.3 |
| 20260904181037 | 84 | 167 | 4.0 | 9.0 | 0.00 | 0.10 | 0.03 | 78 | 1015.3 |
| 20260904180537 | 84 | 149 | 4.0 | 11.0 | 0.00 | 0.10 | 0.03 | 78 | 1015.4 |
| 20260904180105 | 84 | 172 | 6.0 | 11.0 | 0.00 | 0.10 | 0.03 | 77 | 1015.8 |
| 20260904175538 | 85 | 159 | 6.0 | 10.0 | 0.00 | 0.13 | 0.03 | 78 | 1015.7 |
| 20260904175036 | 86 | 183 | 3.0 | 11.0 | 0.02 | 0.13 | 0.03 | 76 | 1015.6 |
| 20260904174602 | 87 | 144 | 5.0 | 12.0 | 0.02 | 0.13 | 0.03 | 76 | 1015.5 |
| 20260904174040 | 87 | 172 | 6.0 | 12.0 | 0.02 | 0.13 | 0.03 | 76 | 1015.5 |
| 20260904173538 | 87 | 144 | 6.0 | 10.0 | 0.02 | 0.13 | 0.03 | 78 | 1015.4 |
| 20260904173107 | 87 | 149 | 3.0 | 7.0 | 0.02 | 0.13 | 0.03 | 80 | 1015.5 |
| 20260904172536 | 86 | 199 | 2.0 | 5.0 | 0.02 | 0.13 | 0.03 | 82 | 1015.5 |
| 20260904172037 | 85 | 137 | 2.0 | 5.0 | 0.02 | 0.13 | 0.03 | 80 | 1015.8 |
| 20260904171615 | 84 | 34 | 1.0 | 3.0 | 0.02 | 0.13 | 0.03 | 78 | 1015.9 |
| 20260904171037 | 84 | 34 | 1.0 | 3.0 | 0.02 | 0.13 | 0.03 | 81 | 1016.1 |
| 20260904170536 | 83 | 34 | 1.0 | 6.0 | 0.02 | 0.13 | 0.03 | 86 | 1016.1 |
| 20260904165537 | 84 | 34 | 3.0 | 13.0 | 0.02 | 0.18 | 0.03 | 79 | 1015.9 |
| 20260904165037 | 86 | 134 | 4.0 | 13.0 | 0.00 | 0.16 | 0.01 | 79 | 1015.9 |
| 20260904164614 | 89 | 174 | 4.0 | 9.0 | 0.00 | 0.16 | 0.01 | 77 | 1015.8 |
| 20260904164037 | 89 | 167 | 1.0 | 8.0 | 0.00 | 0.16 | 0.01 | 76 | 1015.7 |
| 20260904163536 | 89 | 157 | 3.0 | 8.0 | 0.00 | 0.16 | 0.01 | 77 | 1015.8 |